Weather in Torre贸n

Mexico     25掳32鈥15鈥砃   103掳26鈥10鈥砏
temp.,
掳C
wind,
m/s
gust,
m/s
humid.,
%
clouds,
%
prec.,
mm/h
press.,
hPa
HPBL,
m
20 april, tue
tue2001:00+15nne123442 0.0 101311
04:00+14wnw2249100 0.0 101414
07:00+12n2258100 0.0 101511
10:00+17n11430 0.0 1016400
13:00+24ne22240 0.0 10141820
16:00+27ne23160 0.0 10102949
19:00+27ene63156 0.0 10082050
22:00+20ene33203 0.0 101117
21 april, wed
wed2101:00+18nne22230 0.0 101311
04:00+15nnw22515 0.0 101311
07:00+13ene116483 0.0 101411
10:00+20e23391 0.0 1015637
13:00+26sse15202 0.0 10122031
16:00+32wnw3650 0.0 10053435
19:00+32nnw3364 0.0 10031202
22:00+18nne22471 0.0 100925
22 april, thu
thu2201:00+15nnw33705 0.0 101358
04:00+12n11846 0.0 101312
07:00+11nnw119013 0.0 101410
10:00+17ne0152100 0.0 1014322
13:00+27ene1314100 0.0 10101406
16:00+31nne256100 0.0 10052551
19:00+30ne549100 0.0 1004687
22:00+23ssw1115100 0.0 100811
23 april, fri
fri2301:00+23sw3311100 0.0 101020
04:00+20ssw0122100 0.0 101012
07:00+19sse1131100 0.0 101011
10:00+24s2413100 0.0 1010524
13:00+31sw68618 0.0 10061972
16:00+34w101475 0.0 10024734
19:00+31w141570 0.0 10032842
22:00+25w1017100 0.0 1008329
24 april, sat
sat2401:00+18wnw11160 0.0 101212
04:00+17nw33150 0.0 101313
07:00+14wnw12190 0.0 101611
10:00+22nnw24110 0.0 1017825
13:00+26n3490 0.0 10152131
16:00+29ne4470 0.0 10112446
19:00+28ne4360 0.0 10112052
22:00+19nne11110 0.0 101311